Weather History for Kahului, HI

Change the Weather History Date:

Tuesday, April 9, 2013

  Actual Average Record
Temperature  
Mean Temperature 76 °F 74 °F  
Max Temperature 87 °F 82 °F 88 °F (1951)
Min Temperature 65 °F 66 °F 56 °F (1958)
Degree Days  
Heating Degree Days 0 0  
Month to date heating degree days 0 0  
Since 1 July heating degree days 0 0  
Cooling Degree Days 11 9  
Month to date cooling degree days 73 81  
Year to date cooling degree days 739 735  
Growing Degree Days 26 (Base 50)    
Moisture  
Dew Point 66 °F    
Average Humidity 74    
Maximum Humidity 93    
Minimum Humidity 55    
Precipitation  
Precipitation T in 0.06 in 3.29 in (1989)
Month to date precipitation T 0.60  
Year to date precipitation 6.13 7.81  
Snow  
Snow 0.00 in - - ()
Month to date snowfall 0.0  
Since 1 July snowfall 0.0  
Snow Depth 0.00 in    
Sea Level Pressure  
Sea Level Pressure 30.04 in    
Wind  
Wind Speed 10 mph (ENE)    
Max Wind Speed 21 mph    
Max Gust Speed 28 mph    
Visibility 10 miles    
Events      
T = Trace of Precipitation, MM = Missing Value Source: NWS Daily Summary

Daily Weather History Graph

Daily Weather History Graph

Search for Another Location

Airport:

Trip Planner

Search our weather history database for the weather conditions in past years. The results will help you decide how hot, cold, wet, or windy it might be!

Date:

Astronomy

Apr. 09, 2013 Rise Set
Actual Time 6:11 AM HST 6:42 PM HST
Civil Twilight 5:49 AM HST 7:05 PM HST
Nautical Twilight 5:22 AM HST 7:31 PM HST
Astronomical Twilight 4:56 AM HST 7:58 PM HST
Moon 5:38 AM HST (4/9) 6:27 PM HST (4/9)
Length of Visible Light 13h 16m
Length of Day
12h 31m
Waning Crescent, 0% of the Moon is Illuminated
Apr 9
Waning Crescent
Apr 9
New
Apr 18
First Quarter
Apr 25
Full
May 2
Last Quarter

Hourly Weather History & Observations

Time (HST) Temp. Heat Index Dew Point Humidity Pressure Visibility Wind Dir Wind Speed Gust Speed Precip Events Conditions
12:54 AM 73.0 °F - 66.0 °F 79% 30.08 in 10.0 mi ENE 10.4 mph 23.0 mph N/A   Mostly Cloudy
1:54 AM 72.0 °F - 66.0 °F 81% 30.06 in 10.0 mi ENE 6.9 mph - 0.00 in   Partly Cloudy
2:54 AM 66.9 °F - 64.0 °F 90% 30.04 in 10.0 mi North 4.6 mph - N/A   Clear
3:54 AM 66.0 °F - 63.0 °F 90% 30.03 in 10.0 mi East 3.5 mph - N/A   Clear
4:54 AM 66.0 °F - 64.0 °F 93% 30.02 in 10.0 mi NE 4.6 mph - N/A   Mostly Cloudy
5:54 AM 71.1 °F - 66.9 °F 87% 30.01 in 10.0 mi NE 15.0 mph - N/A   Mostly Cloudy
6:54 AM 70.0 °F - 64.9 °F 84% 30.03 in 10.0 mi SSE 9.2 mph 21.9 mph N/A   Scattered Clouds
7:54 AM 73.9 °F - 64.0 °F 71% 30.05 in 10.0 mi Calm Calm - N/A   Partly Cloudy
8:54 AM 78.1 °F - 64.9 °F 64% 30.06 in 10.0 mi North 4.6 mph - N/A   Scattered Clouds
9:54 AM 80.1 °F 82.7 °F 68.0 °F 67% 30.06 in 10.0 mi NE 13.8 mph 19.6 mph N/A   Scattered Clouds
10:54 AM 82.9 °F 85.8 °F 68.0 °F 60% 30.05 in 10.0 mi NE 16.1 mph 20.7 mph N/A   Scattered Clouds
11:54 AM 84.0 °F 87.0 °F 68.0 °F 58% 30.04 in 10.0 mi ENE 18.4 mph 24.2 mph N/A   Scattered Clouds
12:54 PM 84.9 °F 87.6 °F 66.9 °F 55% 30.01 in 10.0 mi ENE 15.0 mph 23.0 mph N/A   Scattered Clouds
1:54 PM 86.0 °F 89.4 °F 68.0 °F 55% 29.99 in 10.0 mi NE 18.4 mph 24.2 mph N/A   Scattered Clouds
2:54 PM 84.9 °F 88.2 °F 68.0 °F 57% 29.98 in 10.0 mi NE 18.4 mph 24.2 mph N/A   Scattered Clouds
3:54 PM 80.1 °F 82.7 °F 68.0 °F 67% 29.98 in 10.0 mi ENE 16.1 mph 23.0 mph N/A   Scattered Clouds
4:54 PM 78.1 °F - 66.9 °F 68% 29.98 in 10.0 mi ENE 18.4 mph 24.2 mph N/A   Scattered Clouds
5:54 PM 78.1 °F - 66.9 °F 68% 29.99 in 10.0 mi ENE 18.4 mph 24.2 mph N/A   Scattered Clouds
6:54 PM 75.9 °F - 66.9 °F 74% 30.02 in 10.0 mi Variable 4.6 mph - N/A   Scattered Clouds
7:54 PM 75.0 °F - 68.0 °F 79% 30.05 in 10.0 mi East 8.1 mph - N/A   Scattered Clouds
8:54 PM 73.0 °F - 64.9 °F 76% 30.06 in 10.0 mi ENE 10.4 mph 17.3 mph N/A   Clear
9:54 PM 71.1 °F - 66.0 °F 84% 30.09 in 10.0 mi SE 6.9 mph - N/A   Clear
10:54 PM 69.1 °F - 66.0 °F 90% 30.10 in 10.0 mi SE 8.1 mph - N/A   Clear
11:54 PM 69.1 °F - 66.0 °F 90% 30.09 in 10.0 mi SE 5.8 mph - N/A   Clear